DECAYED
Showing default

FLOCK 4Q 20, 58313 (Decayed)

Orbit data source: Space-Track

FLOCK 4Q 20, 58313 was a payload satellite owned by Planet (US) in LEO that was launched on Sat, 11 Nov 2023 UTC via an FALCON 9 launch vehicle from the Air Force Western Test Range (AFWTR). Payload-class satellites include a variety of spacecraft equipped with specific instruments for various scientific and technological missions. These include communications satellites like Starlink; space stations such as the ISS; scientific satellites like the Hubble; Earth observation satellites from companies like Planet Labs, Umbra, and HawkEye 360; GPS; miniature CubeSats for education and research; and military/defense satellites.

Not visible in the next 10 days
Identifier
58313, 2023-174BK
Orbit
Decayed
Country
Flag of USUS
Related business
Manufacturer
Planet
Mission
Decayed Commercial Imaging
Bus & Motor
CUBESAT 3U, Unknown motor
Mass
5.7 kg wet, 5.7 kg dry
Launch date (UTC)
2023-11-11 (3 years ago)
Launch vehicle
FALCON 9
Launch site
Air Force Western Test Range (AFWTR)
Object type
Payload
Rocket body
Debris
Shape & HBR
Box + 2 Pan, 1.0 m
Radar Cross Section
0.072 m², Medium (>0.1 m² and < 1m²)

Expand to show TLE details & history
Last TLE update: 3 months ago

TLE from 3 months ago
0 FLOCK 4Q 20
1 58313U 23174BK  26150.63917284  .09061022  24921-5  14524-2 0  9992
2 58313  97.3539 248.5508 0013185 237.3503 122.6522 16.33473054143487
Epoch: 2026-05-30T15:20Z
TLE epoch observation values (Epoch: 2026-05-30T15:20:24.533Z)
Latitude
0.00003°
Longitude
130.29626°
Altitude
191.144 km
Speed
7.789 km/s
True Right ascension
16h 34m 12s
True Declination
0° 00' 00"
Sunlit
Object was in full shadow at epoch
Visualization orbit readout
Latitude
Unknown
Longitude
Unknown
Altitude
Unknown
Speed
Unknown
Apparent Right ascension
Unknown
Apparent Declination
Unknown
Sunlit
N/A
Visualization observer readout
Local Sidereal Time
12:55:34
Azimuth
Unknown
Elevation
Unknown
Doppler factor
Unknown
Orbital elements
Apogee altitude
188.684 km
Perigee altitude
171.39 km
Semi-major axis
6,558.174 km
Eccentricity
0.00132
Inclination
97.3539°
RAAN
248.5508°
Arg. of periapsis
237.3503°
True anomaly
122.7793°
Mean anomaly
122.6522°
Eccentric anomaly
122.71576°
Mean motion
4.08666 °/min
Orbital period
88.09 mins
BSTAR
0.0014524
Loading maneuver chart data...
Computing Atmospheric mass density...

Documentation

Showing up to 5 results
|